(133373) = 1998 RY27 = 2003 QK28 = 2003 SJ147

Discovered at Palomar on 2003-09-20 by NEAT.

Orbit

Orbit type: Main Belt

Note: WebGL enabled browser required.

epoch2024-03-31.0
epoch JD2460400.5
perihelion date2021-08-01.17183
perihelion JD2459427.67183
argument of perihelion (°)52.32161
ascending node (°)275.95375
inclination (°)4.19520
eccentricity0.0834144
perihelion distance (AU)2.5414836
Tisserand w.r.t. Jupiter3.3
ΔV w.r.t. Earth (km/sec)10.1
semimajor axis (AU)2.7727729
mean anomaly (°)207.66749
mean daily motion (°/day)0.21346780
aphelion distance (AU)3.004
period (years)4.62
P-vector [x]0.84847594
P-vector [y]-0.50567891
P-vector [z]-0.15613270
Q-vector [x]0.52420850
Q-vector [y]0.76245443
Q-vector [z]0.37930025
absolute magnitude15.15
phase slope0.15
uncertainty0
referenceMPEC 2024-F07
observations used1244
oppositions19
arc length (days)9343
first opposition used1998
last opposition used2024
residual rms (arc-secs)0.70
perturbers coarse indicatorM-v
perturbers precise indicator003Ek
first observation date used1998-08-17.0
last observation date used2024-03-15.0
computer nameMPCLINUX
JD of orbit computation2456700.315734
perihelion JD uncertainty (days)1.6393E-04
argument of perihelion uncertainty (°)8.8529E-05
ascending node uncertainty (°)8.1138E-05
inclination uncertainty (°)5.0500E-06
eccentricity uncertainty 5.9095E-08
perihelion distance uncertainty (AU)1.6846E-07
Minimum Orbit Intersection Distances (in AU)
for orbit epoch: 2460400.5, reference: E2024-GB3
Mercury2.12797
Venus1.8199
Earth1.53231
Mars1.16488
Jupiter2.24641
Saturn6.1229
Uranus15.4543
Neptune27.0994

Observations

1264 total observations over interval: 1998 08 17.36307 – 2024 03 15.945162
These data are available for download (format description).

Date (UT) J2000 RA J2000 Dec Magn Location Ref
1998 08 17.36307 23 18 57.75 +02 06 56.6 19.4   704 – Lincoln Laboratory ETS, New Mexico MPS 90523
1998 08 17.38414 23 18 57.15 +02 06 52.2 19.8   704 – Lincoln Laboratory ETS, New Mexico MPS 90523
1998 08 17.40529 23 18 56.28 +02 06 52.3 19.8   704 – Lincoln Laboratory ETS, New Mexico MPS 90523
1998 08 17.42627 23 18 55.48 +02 06 47.9 19.0   704 – Lincoln Laboratory ETS, New Mexico MPS 90523
1998 08 17.44716 23 18 54.72 +02 06 47.5 19.0   704 – Lincoln Laboratory ETS, New Mexico MPS 90523
1998 09 14.24572 22 57 43.44 +00 27 05.4 18.7   704 – Lincoln Laboratory ETS, New Mexico MPS 2307
1998 09 14.26778 22 57 42.30 +00 27 01.1 19.1   704 – Lincoln Laboratory ETS, New Mexico MPS 2307
1998 09 14.28967 22 57 41.29 +00 26 54.7 19.4   704 – Lincoln Laboratory ETS, New Mexico MPS 2307
1998 09 14.31170 22 57 40.26 +00 26 48.9 20.2   704 – Lincoln Laboratory ETS, New Mexico MPS 2307
1998 09 18.25601 22 54 35.89 +00 07 42.4 18.8   704 – Lincoln Laboratory ETS, New Mexico MPS 2307
1998 09 18.26896 22 54 35.25 +00 07 38.0 18.8   704 – Lincoln Laboratory ETS, New Mexico MPS 2307
1998 09 18.28180 22 54 34.68 +00 07 33.8 19.3   704 – Lincoln Laboratory ETS, New Mexico MPS 2307
1998 09 18.29468 22 54 34.08 +00 07 29.4 19.3   704 – Lincoln Laboratory ETS, New Mexico MPS 2307
2001 03 18.43997 11 31 34.72 -03 40 53.4 19.8   608 – Haleakala-AMOS MPS 178998
2001 03 18.45066 11 31 34.14 -03 40 50.8 20.1   608 – Haleakala-AMOS MPS 178998
2001 03 18.46145 11 31 33.60 -03 40 46.9 19.9   608 – Haleakala-AMOS MPS 178998
2003 08 22.08591 02 16 21.94 +19 08 32.9 19.0 R 599 – Campo Imperatore-CINEOS MPS 83474
2003 08 22.09751 02 16 22.16 +19 08 34.8 19.2 R 599 – Campo Imperatore-CINEOS MPS 83474
2003 08 22.10922 02 16 22.46 +19 08 38.0 18.7 R 599 – Campo Imperatore-CINEOS MPS 83474
2003 09 20.48866 02 16 46.30 +19 54 33.9 18.7   644 – Palomar Mountain/NEAT MPS 85508
2003 09 20.49976 02 16 46.05 +19 54 33.3 18.7   644 – Palomar Mountain/NEAT MPS 85508
2003 09 20.51108 02 16 45.78 +19 54 33.0 18.7   644 – Palomar Mountain/NEAT MPS 85508
2003 09 21.36209 02 16 26.37 +19 53 57.0 18.8 R 699 – Lowell Observatory-LONEOS MPS 85508
2003 09 21.37536 02 16 26.05 +19 53 56.9   699 – Lowell Observatory-LONEOS MPS 85508
2003 09 21.38863 02 16 25.75 +19 53 55.6   699 – Lowell Observatory-LONEOS MPS 85508
2003 09 21.40190 02 16 25.34 +19 53 55.1   699 – Lowell Observatory-LONEOS MPS 85508
2003 09 22.30406 02 16 03.41 +19 53 09.6 19.0   704 – Lincoln Laboratory ETS, New Mexico MPS 85508
2003 09 22.31650 02 16 03.14 +19 53 08.1 19.5   704 – Lincoln Laboratory ETS, New Mexico MPS 85508
2003 09 22.32921 02 16 02.74 +19 53 08.3 19.3   704 – Lincoln Laboratory ETS, New Mexico MPS 85508
2003 09 22.35431 02 16 02.09 +19 53 06.1 19.3   704 – Lincoln Laboratory ETS, New Mexico MPS 85508
2003 09 27.30169 02 13 39.26 +19 46 27.5 19.5   704 – Lincoln Laboratory ETS, New Mexico MPS 86321
2003 09 27.31547 02 13 38.77 +19 46 25.8 19.3   704 – Lincoln Laboratory ETS, New Mexico MPS 86321
2003 09 27.32835 02 13 38.36 +19 46 25.0 19.6   704 – Lincoln Laboratory ETS, New Mexico MPS 86321
2003 09 27.34168 02 13 37.89 +19 46 23.4 19.6   704 – Lincoln Laboratory ETS, New Mexico MPS 86321
2003 09 27.35445 02 13 37.38 +19 46 22.2 19.9   704 – Lincoln Laboratory ETS, New Mexico MPS 86321
2003 10 17.40828 01 59 03.48 +18 39 20.4 18.7 V 691 – Steward Observatory, Kitt Peak-Spacewatch MPS 87347
2003 10 17.43649 01 59 01.99 +18 39 12.2 19.0 V 691 – Steward Observatory, Kitt Peak-Spacewatch MPS 87347
2003 10 17.46342 01 59 00.57 +18 39 04.3 19.1 V 691 – Steward Observatory, Kitt Peak-Spacewatch MPS 87347
2003 10 20.41228 01 56 28.03 +18 24 32.6 18.6   644 – Palomar Mountain/NEAT MPS 88201
2003 10 20.43331 01 56 26.90 +18 24 26.0 18.6   644 – Palomar Mountain/NEAT MPS 88201
2003 10 20.45668 01 56 25.66 +18 24 18.7 18.9   644 – Palomar Mountain/NEAT MPS 88201
2003 10 22.26207 01 54 51.55 +18 14 58.0 18.4   704 – Lincoln Laboratory ETS, New Mexico MPS 88201
2003 10 22.27442 01 54 50.88 +18 14 53.7 18.6   704 – Lincoln Laboratory ETS, New Mexico MPS 88201
2003 10 22.28698 01 54 50.15 +18 14 50.8 18.9   704 – Lincoln Laboratory ETS, New Mexico MPS 88201
2003 10 22.29931 01 54 49.51 +18 14 45.8 18.9   704 – Lincoln Laboratory ETS, New Mexico MPS 88201
2003 10 22.31142 01 54 48.90 +18 14 41.8 19.5   704 – Lincoln Laboratory ETS, New Mexico MPS 88201
2003 10 23.26533 01 53 59.01 +18 09 38.2 19.1   704 – Lincoln Laboratory ETS, New Mexico MPS 88201
2003 10 23.27763 01 53 58.32 +18 09 34.5 18.9   704 – Lincoln Laboratory ETS, New Mexico MPS 88201
2003 10 23.29006 01 53 57.65 +18 09 30.3 18.7   704 – Lincoln Laboratory ETS, New Mexico MPS 88201
2003 10 23.30205 01 53 57.01 +18 09 26.7 18.8   704 – Lincoln Laboratory ETS, New Mexico MPS 88201
2003 10 23.31434 01 53 56.31 +18 09 22.9 18.9   704 – Lincoln Laboratory ETS, New Mexico MPS 88201
2003 10 24.29225 01 53 05.22 +18 04 05.5 18.5   704 – Lincoln Laboratory ETS, New Mexico MPS 88201
2003 10 24.30530 01 53 04.52 +18 04 01.9 18.3   704 – Lincoln Laboratory ETS, New Mexico MPS 88201
2003 10 24.31846 01 53 03.77 +18 03 57.3 18.3   704 – Lincoln Laboratory ETS, New Mexico MPS 88201
2003 10 24.33170 01 53 03.06 +18 03 52.7 19.0   704 – Lincoln Laboratory ETS, New Mexico MPS 88201
2003 10 24.34403 01 53 02.36 +18 03 49.1 18.9   704 – Lincoln Laboratory ETS, New Mexico MPS 88201
2003 10 25.26209 01 52 14.54 +17 58 46.7 18.6   704 – Lincoln Laboratory ETS, New Mexico MPS 88201
2003 10 25.27438 01 52 13.89 +17 58 42.8 18.8   704 – Lincoln Laboratory ETS, New Mexico MPS 88201
2003 10 25.28657 01 52 13.20 +17 58 38.7 18.8   704 – Lincoln Laboratory ETS, New Mexico MPS 88201
2003 10 25.29907 01 52 12.53 +17 58 34.6 18.8   704 – Lincoln Laboratory ETS, New Mexico MPS 88201
2003 10 25.31122 01 52 11.87 +17 58 30.5 18.7   704 – Lincoln Laboratory ETS, New Mexico MPS 88201
2003 10 29.13945 01 48 54.05 +17 36 56.3 18.2 R 699 – Lowell Observatory-LONEOS MPS 90523
2003 10 29.15942 01 48 53.06 +17 36 50.0   699 – Lowell Observatory-LONEOS MPS 90523
2003 10 29.17933 01 48 51.96 +17 36 42.9   699 – Lowell Observatory-LONEOS MPS 90523
2003 10 29.19928 01 48 50.92 +17 36 35.6   699 – Lowell Observatory-LONEOS MPS 90523
2003 10 30.29879 01 47 54.88 +17 30 16.9 18.3   704 – Lincoln Laboratory ETS, New Mexico MPS 89472
2003 10 30.31192 01 47 54.22 +17 30 12.3 18.2   704 – Lincoln Laboratory ETS, New Mexico MPS 89472
2003 10 30.32435 01 47 53.57 +17 30 08.1 18.8   704 – Lincoln Laboratory ETS, New Mexico MPS 89472
2003 10 30.33698 01 47 52.89 +17 30 04.0 18.9   704 – Lincoln Laboratory ETS, New Mexico MPS 89472
2003 10 30.34940 01 47 52.24 +17 29 58.9 18.5   704 – Lincoln Laboratory ETS, New Mexico MPS 89472
2003 11 01.24939 01 46 17.38 +17 18 57.4 18.0   704 – Lincoln Laboratory ETS, New Mexico MPS 89472
2003 11 01.25440 01 46 17.06 +17 18 56.3 18.3   704 – Lincoln Laboratory ETS, New Mexico MPS 89472
2003 11 01.26140 01 46 16.75 +17 18 54.2 18.6   704 – Lincoln Laboratory ETS, New Mexico MPS 89472
2003 11 01.26671 01 46 16.46 +17 18 51.6 18.7   704 – Lincoln Laboratory ETS, New Mexico MPS 89472
2003 11 01.27343 01 46 16.13 +17 18 49.7 18.7   704 – Lincoln Laboratory ETS, New Mexico MPS 89472
2003 11 01.27973 01 46 15.77 +17 18 46.4 18.6   704 – Lincoln Laboratory ETS, New Mexico MPS 89472
2003 11 01.28551 01 46 15.50 +17 18 44.7 19.2   704 – Lincoln Laboratory ETS, New Mexico MPS 89472
2003 11 01.29313 01 46 15.04 +17 18 41.7 19.0   704 – Lincoln Laboratory ETS, New Mexico MPS 89472
2003 11 01.29760 01 46 14.87 +17 18 40.8 18.9   704 – Lincoln Laboratory ETS, New Mexico MPS 89472
2003 11 02.18763 01 45 31.29 +17 13 28.3 18.6   704 – Lincoln Laboratory ETS, New Mexico MPS 89472
2003 11 02.19992 01 45 30.65 +17 13 24.2 18.8   704 – Lincoln Laboratory ETS, New Mexico MPS 89472
2003 11 02.21187 01 45 30.08 +17 13 19.6 18.7   704 – Lincoln Laboratory ETS, New Mexico MPS 89472
2003 11 02.22388 01 45 29.43 +17 13 15.2 18.3   704 – Lincoln Laboratory ETS, New Mexico MPS 89472
2003 11 02.23591 01 45 28.85 +17 13 11.6 18.7   704 – Lincoln Laboratory ETS, New Mexico MPS 89472
2003 11 02.25180 01 45 28.01 +17 13 06.4 18.7   704 – Lincoln Laboratory ETS, New Mexico MPS 89472
